This demonstration page uses our WeatherBlox Daily Observations layout. Learn more.

Left ArrowRight Arrow

Hourly Observations for July 1, 2022

Temp ( °F °C ) Dew Point ( °F °C ) Humidity (%) Winds ( mph kmh ) Pressure ( in mb ) Visibility ( mi km ) Precip ( " mm )
12:53 am 00:53 Mostly Clear 83 28.3 68 20 61 61 SSE 12 19 29.95 1014 10 16 0.00 0.00
1:53 am 01:53 Mostly Clear 82 27.8 69 20.6 65 65 SSE 8 13 29.95 1014 10 16 0.00 0.00
2:53 am 02:53 Mostly Clear 80 26.7 69 20.6 69 69 S 9 15 29.94 1014 10 16 0.00 0.00
3:53 am 03:53 Mostly Clear 79 26.1 69 20.6 72 72 SSE 9 15 29.95 1014 10 16 0.00 0.00
4:53 am 04:53 Clear 78 25.6 69 20.6 74 74 S 7 11 29.94 1014 10 16 0.00 0.00
5:53 am 05:53 Mostly Clear 77 25 69 20.6 77 77 S 8 13 29.95 1014 10 16 0.00 0.00
6:53 am 06:53 Mostly Sunny 76 24.4 69 20.6 79 79 VRB 6 9 29.95 1014 10 16 0.00 0.00
7:53 am 07:53 Mostly Sunny 77 25 69 20.6 77 77 VRB 7 11 29.97 1015 10 16 0.00 0.00
8:53 am 08:53 Mostly Sunny 78 25.6 70 21.1 76 76 VRB 5 7 29.97 1015 10 16 0.00 0.00
9:53 am 09:53 Mostly Sunny 81 27.2 70 21.1 69 69 VRB 5 7 29.97 1015 10 16 0.00 0.00
10:53 am 10:53 Mostly Sunny 84 28.9 70 21.1 63 63 ESE 6 9 29.97 1015 10 16 0.00 0.00
11:53 am 11:53 Mostly Sunny 88 31.1 71 21.7 57 57 E 7 11 29.96 1015 10 16 0.00 0.00
12:53 pm 12:53 Mostly Sunny 90 32.2 69 20.6 50 50 VRB 3 6 29.95 1014 10 16 0.00 0.00
12:57 pm 12:57 Mostly Sunny 90 32.2 69 20.6 50 50 ESE 8 13 29.94 1014 10 16 0.00 0.00
1:53 pm 13:53 Mostly Sunny 92 33.3 68 20 46 46 ESE 10 17 29.93 1014 10 16 0.00 0.00
2:53 pm 14:53 Partly Cloudy 93 33.9 68 20 44 44 SSE 7 11 29.91 1013 10 16 0.00 0.00
3:53 pm 15:53 Partly Cloudy 92 33.3 67 19.4 44 44 SE 9 15 29.89 1012 10 16 0.00 0.00
4:53 pm 16:53 Partly Cloudy 94 34.4 67 19.4 41 41 ESE 8 13 29.87 1012 10 16 0.00 0.00
5:53 pm 17:53 Partly Cloudy 94 34.4 67 19.4 41 41 E 7 11 29.85 1011 10 16 0.00 0.00
6:53 pm 18:53 Partly Cloudy 94 34.4 66 18.9 40 40 ESE 7 11 29.84 1010 10 16 0.00 0.00
7:53 pm 19:53 Partly Cloudy 93 33.9 67 19.4 42 42 E 12 19 29.83 1010 10 16 0.00 0.00
8:53 pm 20:53 Mostly Clear 91 32.8 67 19.4 45 45 ESE 9 15 29.83 1010 10 16 0.00 0.00
9:53 pm 21:53 Mostly Clear 89 31.7 68 20 50 50 SE 13 20 29.85 1011 10 16 0.00 0.00
10:53 pm 22:53 Partly Cloudy 88 31.1 70 21.1 55 55 SSE 9 15 29.88 1012 10 16 0.00 0.00
11:53 pm 23:53 Mostly Clear 86 30 70 21.1 59 59 SSE 10 17 29.90 1012 10 16 0.00 0.00

Powered by AerisWeather